CW0565 Weather Reports


time (UTC)temp
C
wind
direction
speed
KPH
gust
KPH
rain 1hr
cm
rain 24hr
cm
rain mn
cm
humidity
%
barometer
mb
20260510133009 12 256 16.1 30.6 0.00 0.05 0.05 28 1009.4
20260510131509 12 262 6.4 19.3 0.00 0.05 0.05 28 1009.6
20260510130013 12 238 8.0 24.1 0.00 0.05 0.05 28 1009.8
20260510124510 11 275 9.7 19.3 0.00 0.05 0.05 30 1010.1
20260510123009 11 306 9.7 27.4 0.00 0.05 0.05 28 1010.3
20260510121509 12 243 1.6 17.7 0.00 0.05 0.05 27 1010.3
20260510120010 12 274 12.9 25.7 0.00 0.05 0.05 27 1010.5
20260510114510 12 309 8.0 20.9 0.00 0.05 0.05 28 1010.8
20260510113010 13 331 6.4 20.9 0.00 0.05 0.05 27 1010.9
20260510111510 12 294 14.5 27.4 0.00 0.05 0.05 29 1011.0
20260510110009 12 261 6.4 19.3 0.00 0.05 0.05 28 1011.2
20260510104510 11 279 16.1 25.7 0.00 0.05 0.05 32 1011.7
20260510103009 13 236 4.8 27.4 0.00 0.05 0.05 28 1011.6
20260510101509 12 293 4.8 19.3 0.00 0.05 0.05 29 1011.8
20260510100010 11 330 6.4 20.9 0.00 0.05 0.05 33 1012.0
20260510094510 11 315 14.5 27.4 0.00 0.05 0.05 30 1012.3
20260510093009 11 304 6.4 22.5 0.00 0.05 0.05 30 1012.4
20260510091509 11 304 12.9 29.0 0.00 0.05 0.05 34 1012.3
20260510090010 11 287 12.9 22.5 0.00 0.05 0.05 35 1012.7
20260510084509 11 10 6.4 27.4 0.00 0.05 0.05 38 1012.8
20260510083010 10 287 8.0 17.7 0.00 0.05 0.05 39 1012.8
20260510081509 10 19 8.0 19.3 0.00 0.05 0.05 43 1012.8
20260510080027 9 350 16.1 24.1 0.00 0.05 0.05 46 1013.1
20260510074509 9 15 9.7 20.9 0.00 0.05 0.05 48 1013.2
20260510071509 8 5 9.7 20.9 0.00 0.05 0.05 56 1013.7
20260510070009 8 329 4.8 19.3 0.00 0.05 0.05 61 1013.7
20260510064512 7 268 9.7 22.5 0.00 0.05 0.05 61 1013.7
20260510063009 7 293 4.8 20.9 0.00 0.05 0.05 65 1013.9
20260510061511 7 301 6.4 16.1 0.00 0.05 0.05 72 1014.0
20260510060021 6 292 1.6 8.0 0.00 0.05 0.05 80 1014.0
20260510054511 6 288 1.6 12.9 0.00 0.05 0.05 82 1014.0
20260510053009 6 308 0.0 6.4 0.00 0.05 0.05 83 1014.0
20260510050009 6 330 0.0 8.0 0.00 0.05 0.05 87 1014.2
20260510044509 6 5 0.0 1.6 0.00 0.05 0.05 88 1014.1
20260510041511 6 5 0.0 6.4 0.00 0.05 0.05 88 1014.4
20260510040012 6 9 0.0 0.0 0.03 0.05 0.05 89 1014.6
20260510034509 6 9 0.0 3.2 0.03 0.05 0.05 88 1014.7
20260510033009 6 9 0.0 3.2 0.05 0.05 0.05 89 1014.9
20260510031511 6 11 0.0 1.6 0.05 0.05 0.05 89 1015.0
20260510030009 6 10 0.0 3.2 0.03 0.03 0.03 89 1015.1
20260510024511 6 11 1.6 8.0 0.03 0.03 0.03 88 1015.4
20260510021526 6 10 0.0 1.6 0.00 0.00 0.00 87 1015.6
20260510020010 6 11 0.0 0.0 0.00 0.00 0.00 87 1015.7
20260510014521 6 11 0.0 0.0 0.00 0.00 0.00 86 1015.8
20260510013010 6 11 0.0 0.0 0.00 0.00 0.00 84 1016.0
20260510011515 7 11 0.0 0.0 0.00 0.00 0.00 84 1016.1
20260510010021 7 11 0.0 0.0 0.00 0.00 0.00 84 1016.2
20260510004510 7 11 0.0 0.0 0.00 0.00 0.00 82 1016.4
20260510003010 7 11 0.0 0.0 0.00 0.00 0.00 80 1016.7
20260510001511 7 11 0.0 0.0 0.00 0.00 0.00 79 1016.8
20260510000010 7 11 0.0 0.0 0.00 0.00 0.00 78 1017.0
20260509234510 7 11 0.0 0.0 0.00 0.00 0.00 77 1017.1
20260509233009 7 11 0.0 0.0 0.00 0.00 0.00 77 1017.2
20260509230022 7 11 0.0 0.0 0.00 0.00 0.00 76 1017.5
20260509224509 7 11 0.0 0.0 0.00 0.00 0.00 75 1017.5
20260509223002 7 11 0.0 0.0 0.00 0.00 0.00 74 1017.6
20260509221502 7 11 0.0 0.0 0.00 0.00 0.00 73 1017.7
20260509220009 7 11 0.0 6.4 0.00 0.00 0.00 74 1017.8
20260509214509 7 9 1.6 9.7 0.00 0.00 0.00 73 1017.8
20260509213010 7 17 3.2 6.4 0.00 0.00 0.00 72 1017.8
20260509211509 8 17 3.2 6.4 0.00 0.00 0.00 71 1018.0
20260509210010 8 142 0.0 3.2 0.00 0.00 0.00 68 1017.9
20260509204509 8 147 0.0 1.6 0.00 0.00 0.00 68 1018.1
20260509203013 8 147 0.0 8.0 0.00 0.00 0.00 66 1018.1
20260509201514 9 184 0.0 0.0 0.00 0.00 0.00 66 1018.3
20260509200010 10 184 0.0 1.6 0.00 0.00 0.00 65 1018.2
20260509194515 10 184 0.0 6.4 0.00 0.00 0.00 64 1018.4
20260509193019 10 184 1.6 4.8 0.00 0.00 0.00 63 1018.4
20260509191510 11 184 1.6 9.7 0.00 0.00 0.00 62 1018.3
20260509190009 11 184 4.8 11.3 0.00 0.00 0.00 60 1018.3
20260509184509 11 184 6.4 12.9 0.00 0.00 0.00 59 1018.2
20260509183014 11 184 6.4 12.9 0.00 0.00 0.00 57 1018.2
20260509181509 12 180 11.3 19.3 0.00 0.00 0.00 56 1018.3
20260509180009 12 201 9.7 16.1 0.00 0.00 0.00 56 1018.2
20260509174510 12 160 8.0 22.5 0.00 0.00 0.00 55 1018.3
20260509173009 12 190 11.3 22.5 0.00 0.00 0.00 54 1018.3
20260509171509 12 188 9.7 24.1 0.00 0.00 0.00 52 1018.5
20260509170014 12 185 11.3 22.5 0.00 0.00 0.00 52 1018.6
20260509164511 12 173 11.3 20.9 0.00 0.00 0.00 52 1018.7
20260509163011 12 186 14.5 20.9 0.00 0.00 0.00 52 1018.8
20260509161510 12 198 12.9 22.5 0.00 0.00 0.00 50 1019.0
20260509160009 12 197 14.5 22.5 0.00 0.00 0.00 50 1019.3
20260509154510 12 203 12.9 19.3 0.00 0.00 0.00 48 1019.4
20260509153027 12 188 8.0 20.9 0.00 0.00 0.00 49 1019.5
20260509151509 12 203 12.9 27.4 0.00 0.00 0.00 48 1019.7
20260509150010 12 186 11.3 22.5 0.00 0.00 0.00 49 1019.8
20260509144510 12 211 14.5 27.4 0.00 0.00 0.00 49 1019.9
20260509143010 12 192 14.5 22.5 0.00 0.00 0.00 47 1020.1
20260509141510 12 188 11.3 27.4 0.00 0.00 0.00 45 1020.3
20260509140009 12 194 12.9 27.4 0.00 0.00 0.00 44 1020.5
20260509134510 12 158 19.3 32.2 0.00 0.00 0.00 45 1020.7